Nantes, France

1:17 PM CET on February 11, 2016 (GMT +0100)
Nantes / Atlantique

Weather History for LFRS - July, 2013

Change the Weather History Date:

Sunday, July 21, 2013

  Actual Average Record
Temperature  
Mean Temperature 82 °F -  
Max Temperature 95 °F 75 °F 95 °F (2013)
Min Temperature 68 °F 56 °F 50 °F (2012)
Cooling Degree Days 16    
Growing Degree Days 32 (Base 50)    
Moisture  
Dew Point 63 °F    
Average Humidity 56    
Maximum Humidity 83    
Minimum Humidity 23    
Precipitation  
Precipitation 0.00 in 0.06 in - ()
Sea Level Pressure  
Sea Level Pressure 29.95 in    
Wind  
Wind Speed 6 mph ()    
Max Wind Speed 13 mph    
Max Gust Speed -    
Visibility 7.8 miles    
Events Thunderstorm    
Averages and records for this station are not official NWS values.
T = Trace of Precipitation, MM = Missing Value Source: Averaged Metar Reports

Daily Weather History Graph

Daily Weather History Graph

Search for Another Location

Airport or City:

Trip Planner

Search our weather history database for the weather conditions in past years. The results will help you decide how hot, cold, wet, or windy it might be!

Date:

Astronomy

Jul. 21, 2013 Rise Set
Actual Time 6:32 AM CEST 9:52 PM CEST
Civil Twilight 5:54 AM CEST 10:29 PM CEST
Nautical Twilight 5:05 AM CEST 11:18 PM CEST
Astronomical Twilight 4:02 AM CEST 12:21 AM CEST
Moon 8:35 PM CEST (7/21) 5:02 AM CEST (7/21)
Length of Visible Light 16h 35m
Length of Day
15h 20m
Waxing Gibbous, 97% of the Moon is Illuminated
Jul 21
Waxing Gibbous
Jul 22
Full
Jul 29
Last Quarter
Aug 6
New
Aug 14
First Quarter

Hourly Weather History & Observations

Time (CEST) Temp. Heat Index Dew Point Humidity Pressure Visibility Wind Dir Wind Speed Gust Speed Precip Events Conditions
12:00 AM 78.8 °F - 62.6 °F 57% 29.95 in - ENE 6.9 mph - N/A   Clear
12:30 AM 77.0 °F - 62.6 °F 61% 29.95 in - ENE 6.9 mph - N/A   Clear
1:00 AM 75.2 °F - 62.6 °F 65% 29.95 in - ENE 5.8 mph - N/A   Clear
1:30 AM 75.2 °F - 62.6 °F 65% 29.95 in - ENE 4.6 mph - N/A   Clear
2:00 AM 74 °F - 62 °F 59% 29.96 in 16 mi ENE 4.6 mph - -  
2:00 AM 75.2 °F - 62.6 °F 65% 29.95 in - ENE 4.6 mph - N/A   Clear
2:30 AM 73.4 °F - 62.6 °F 69% 29.95 in 6.2 mi ENE 4.6 mph - N/A   Unknown
3:00 AM 73.4 °F - 62.6 °F 69% 29.95 in 6.2 mi NE 4.6 mph - N/A   Unknown
3:30 AM 73.4 °F - 64.4 °F 73% 29.95 in 6.2 mi ENE 4.6 mph - N/A   Unknown
4:00 AM 73.4 °F - 64.4 °F 73% 29.95 in 6.2 mi NE 3.5 mph - N/A   Unknown
4:30 AM 71.6 °F - 64.4 °F 78% 29.95 in 6.2 mi NE 5.8 mph - N/A   Unknown
5:00 AM 71.6 °F - 64.4 °F 78% 29.95 in - NE 5.8 mph - N/A   Clear
5:30 AM 69.8 °F - 64.4 °F 83% 29.95 in - NE 4.6 mph - N/A   Clear
6:00 AM 69.8 °F - 64.4 °F 83% 29.95 in - ENE 4.6 mph - N/A   Clear
6:30 AM 69.8 °F - 64.4 °F 83% 29.95 in - NE 3.5 mph - N/A   Clear
7:00 AM 69.8 °F - 64.4 °F 83% 29.95 in - ENE 4.6 mph - N/A   Clear
7:30 AM 69.8 °F - 64.4 °F 83% 29.95 in - ENE 4.6 mph - N/A   Clear
8:00 AM 71 °F - 64 °F 73% 29.96 in 12 mi East 8.1 mph - -   Partly Cloudy
8:00 AM 71.6 °F - 64.4 °F 78% 29.95 in - East 8.1 mph - N/A   Clear
8:30 AM 73.4 °F - 64.4 °F 73% 29.95 in - East 8.1 mph - N/A   Clear
9:00 AM 75.2 °F - 64.4 °F 69% 29.95 in - East 5.8 mph - N/A   Clear
9:30 AM 78.8 °F - 64.4 °F 61% 29.95 in - ESE 8.1 mph - N/A   Clear
10:00 AM 80.6 °F 82.3 °F 64.4 °F 58% 29.95 in - ESE 6.9 mph - N/A   Clear
10:30 AM 84.2 °F 85.6 °F 64.4 °F 51% 29.95 in - East 6.9 mph - N/A   Clear
11:00 AM 86.0 °F 86.1 °F 60.8 °F 43% 29.95 in - SE 6.9 mph - N/A   Clear
11:30 AM 87.8 °F 87.6 °F 60.8 °F 40% 29.95 in - SSE 8.1 mph - N/A   Clear
12:00 PM 89.6 °F 88.9 °F 59.0 °F 36% 29.95 in - SE 8.1 mph - N/A   Clear
12:30 PM 91.4 °F 91.4 °F 60.8 °F 36% 29.95 in - SE 10.4 mph - N/A   Clear
1:00 PM 91.4 °F 89.9 °F 57.2 °F 31% 29.95 in - SE 12.7 mph - N/A   Clear
1:30 PM 93.2 °F 92.6 °F 59.0 °F 32% 29.95 in - SSE 11.5 mph - N/A   Clear
2:00 PM 93 °F - 60 °F 23% 29.96 in 12 mi SSE 10.4 mph - -   Scattered Clouds
2:00 PM 93.2 °F 92.6 °F 59.0 °F 32% 29.95 in - SSE 9.2 mph - N/A   Clear
2:30 PM 93.2 °F 92.6 °F 59.0 °F 32% 29.95 in - South 10.4 mph - N/A   Clear
3:00 PM 95.0 °F 94.4 °F 59.0 °F 30% 29.95 in - South 10.4 mph - N/A   Clear
3:30 PM 93.2 °F 93.3 °F 60.8 °F 34% 29.95 in - South 10.4 mph - N/A   Clear
4:00 PM 95.0 °F 94.4 °F 59.0 °F 30% 29.95 in - SSW 9.2 mph - N/A   Clear
4:30 PM 93.2 °F 94.9 °F 64.4 °F 38% 29.92 in 6.2 mi SW 11.5 mph - N/A   Scattered Clouds
5:00 PM 93.2 °F 96.2 °F 66.2 °F 41% 29.92 in 6.2 mi WSW 11.5 mph - N/A Thunderstorm Scattered Clouds
5:30 PM 91.4 °F 93.2 °F 64.4 °F 41% 29.95 in 6.2 mi WSW 11.5 mph - N/A   Partly Cloudy
6:00 PM 91.4 °F 93.2 °F 64.4 °F 41% 29.95 in 6.2 mi WSW 10.4 mph - N/A   Scattered Clouds
6:30 PM 89.6 °F 91.1 °F 64.4 °F 43% 29.95 in 6.2 mi West 9.2 mph - N/A   Scattered Clouds
7:00 PM 89.6 °F 92.2 °F 66.2 °F 46% 29.95 in 6.2 mi SW 10.4 mph - N/A   Scattered Clouds
7:30 PM 87.8 °F 90.4 °F 66.2 °F 49% 29.95 in 6.2 mi WSW 9.2 mph - N/A   Scattered Clouds
8:00 PM 85 °F - 67 °F 45% 29.96 in 12 mi West 6.9 mph - -   Partly Cloudy
8:00 PM 86.0 °F 88.2 °F 66.2 °F 51% 29.95 in 6.2 mi West 8.1 mph - N/A   Scattered Clouds
8:30 PM 84.2 °F 87.3 °F 68.0 °F 58% 29.98 in - West 6.9 mph - N/A   Clear
9:00 PM 84.2 °F 86.6 °F 66.2 °F 55% 29.95 in - Variable 3.5 mph - N/A   Clear
9:30 PM 82.4 °F 84.6 °F 66.2 °F 58% 29.98 in - West 3.5 mph - N/A   Clear
10:00 PM 80.6 °F 82.7 °F 66.2 °F 61% 29.98 in - Variable 2.3 mph - N/A   Clear
10:30 PM 78.8 °F - 64.4 °F 61% 30.01 in - NW 4.6 mph - N/A   Clear
11:00 PM 77.0 °F - 64.4 °F 65% 30.01 in - NW 2.3 mph - N/A   Clear
11:30 PM 75.2 °F - 64.4 °F 69% 29.98 in - NW 3.5 mph - N/A   Clear